Home > Weather > Eisenstadt > Past weeks

Flag for Austria Weather for the Past 2 Weeks in Eisenstadt, Burgenland, Austria

Now
46 °F

Cool.


Feels Like: 45 °F
Forecast: 41 / 45 °F
Wind: 3 mph from Southeast

Location: Eisenstadt

Current Time: Feb 14, 2016 at 7:09:49 PM

Latest Report: Feb 14, 2016 at 6:00 PM


Visibility: N/A

Pressure: 29.32 "Hg

Humidity: 87%

Dew point: 43 °F

Location of EisenstadtLocation

Historic Weather in Eisenstadt — Graph

°F

Eisenstadt Temperature Yesterday

Maximum temperature yesterday: 46 °F (at 3:00 PM)
Minimum temperature yesterday: 35 °F (at 7:00 AM)
Average temperature yesterday: 39 °F

High & Low Weather Summary for the Past Weeks

 TemperatureHumidityPressure
High60 °F (Feb 1, 1:00 PM)100% (Jan 30, 8:00 PM)30.39 "Hg (Jan 30, 8:00 PM)
Low30 °F (Feb 12, 7:00 AM)42% (Feb 7, 11:00 AM)29.26 "Hg (Feb 10, 10:00 AM)
Average43 °F75%29.83 "Hg
* Reported Jan 30 5:00 PM — Feb 14 5:00 PM, Eisenstadt, Weather by CustomWeather, © 2016

Note: Actual official high and low records may vary slightly from our data, if they occured in-between our weather recording intervals... More about our weather records

Advertising

Eisenstadt Weather History for the Previous 24 Hours

 ConditionsComfort  
Time TempWeatherWind HumidityBarometerVisibility
5:00 PM
Sun, Feb 14
46 °FCool.3 mph83%29.29 "HgN/A
4:00 PM47 °FOvercast.5 mph74%29.29 "Hg14 mi
3:00 PM47 °FCool.6 mph74%29.29 "HgN/A
2:00 PM42 °FQuite cool.3 mph87%29.32 "HgN/A
1:00 PM39 °FOvercast.5 mph89%29.32 "Hg11 mi
12:00 PM37 °FChilly.5 mph92%29.35 "HgN/A
11:00 AM37 °FChilly.2 mph91%29.35 "HgN/A
10:00 AM36 °FChilly.3 mph94%29.35 "HgN/A
9:00 AM35 °FChilly.2 mph95%29.35 "HgN/A
8:00 AM35 °FChilly.1 mph95%29.35 "HgN/A
7:00 AM35 °FFog.1 mph95%29.35 "Hg7 mi
6:00 AM35 °FFog.1 mph97%29.32 "Hg1 mi
5:00 AM35 °FFog.2 mph97%29.32 "Hg1 mi
4:00 AM35 °FFog.2 mph95%29.32 "Hg1 mi
3:00 AM35 °FChilly.1 mph95%29.32 "HgN/A
2:00 AM35 °FChilly.2 mph95%29.32 "HgN/A
1:00 AM36 °FChilly.3 mph94%29.32 "HgN/A
10:00 PM
Sat, Feb 13
36 °FClear.3 mph92%29.35 "Hg12 mi
9:00 PM36 °FChilly.3 mph91%29.35 "HgN/A
8:00 PM38 °FChilly.3 mph89%29.38 "HgN/A
7:00 PM39 °FClear.2 mph85%29.38 "Hg12 mi
Weather by CustomWeather, © 2016

See weather overviewHow to use our weather pages